Location: Waco, TX
(31.5480°N, 97.1670°W)
Time: 13:12:36
(UTC-05:00)

ISS - Pass Details

Date: 20 June 2018
Orbit: 402 x 408 km, 51.6° (Epoch: 24 October)

Event Time Altitude Azimuth Distance (km) Brightness Sun altitude
Rises 09:35:59 0° 228° (SW) 2,343 -0.3 38.0°
Reaches altitude 10° 09:38:04 10° 230° (SW) 1,485 -1.3 38.4°
Maximum altitude 09:41:23 73° 315° (NW) 438 -3.2 39.2°
Drops below altitude 10° 09:44:44 10° 41° (NE) 1,492 -0.3 39.9°
Sets 09:46:50 0° 43° (NE) 2,357 0.6 40.3°
